Weather in Privokzalny

Russia / Moscow Oblast     55°59′31″N   35°56′28″E
В апреле 2022 года жителям России запретили посещать сайт meteo.paraplan.net по решению Генеральной прокуратуры. Аудитория сайта уменьшилась в 10 раз. Владельцы сайта не видят смысла в поддержке погодного сервера в таких условиях. Сайт будет закрыт в октябре.
temp.,
°C
wind,
m/s
gust,
m/s
humid.,
%
clouds,
%
prec.,
mm/h
press.,
hPa
HPBL,
m
4 october, tue
tue400:00+6sse61492100 0.8 9991302
03:00+9sse91784100 2.6 9991574
06:00+9sse71685100 0.5 10001622
09:00+5ssw4995100 2.8 1003689
12:00+6sse61092100 2.4 1005987
15:00+6s51084100 2.8 10071055
18:00+7sse4986100 0.0 1007996
21:00+5s5990100 0.4 1007797
5 october, wed
wed500:00+5s4796100 0.8 1007958
03:00+5ssw3695100 1.6 1008990
06:00+5sw3693100 0.4 1009720
09:00+4w3695100 1.0 1011828
12:00+5w3488100 0.2 1013637
15:00+6w4683100 0.4 1014737
18:00+5w3791100 0.0 1015433
21:00+4w269752 0.1 1016212
6 october, thu
thu600:00+3w259838 0.0 1017102
03:00+2w249710 0.0 101873
06:00+3wsw129596 0.0 101744
09:00+6sw239399 0.0 1018143
12:00+10sw348691 0.0 1017454
15:00+9s379588 0.0 1016323
18:00+10ssw499531 0.0 1016308
21:00+9ssw4139675 0.0 1015388
7 october, fri
fri700:00+9sw513955 0.0 1015372
03:00+11w6139476 0.0 1016669
06:00+9w512930 0.0 1018496
09:00+9wnw61185100 0.0 10201043
12:00+12wnw6117099 0.0 10211294
15:00+12w610712 0.1 10221183
18:00+9w410800 0.0 1023340
21:00+7sw311920 0.0 1024271
8 october, sat
sat800:00+6sw39960 0.0 1025183
03:00+6sw39965 0.0 1024185
06:00+6sw49966 0.0 1024206
09:00+8sw410896 0.0 1024296
12:00+12sw597134 0.0 1022723
15:00+13ssw5967100 0.0 1019954
18:00+10ssw5128049 0.0 1018436
21:00+9ssw61582100 0.0 1017624